Location: Claflin County Park
(44.8478°N, 87.5507°W)
Time: 02:34:12
(UTC+00:00)

USA 234 - Pass Details

Date: 13 March 2026
Orbit: 1102 x 1106 km, 123.0° (Epoch: 4 January)

Event Time Altitude Azimuth Distance (km) Brightness Sun altitude
Exits shadow 05:15:33 11° 292° (WNW) 2,859 5.7 -47.0°
Drops below altitude 10° 05:15:53 10° 294° (WNW) 2,966 5.8 -47.0°
Sets 05:18:43 0° 304° (NW) 3,928 6.6 -47.1°
